Location: Dob?e?
(49.9411°N, 15.1496°E)
Time: 19:23:19
(UTC+00:00)

NOAA 18 - Pass Details

Date: 23 October 2021
Orbit: 840 x 861 km, 99.0° (Epoch: 01 December)

Event Time Altitude Azimuth Distance (km) Brightness Sun altitude
Exits shadow 19:14:14 17° 10° (N) 2,026 7.2 -32.7°
Drops below altitude 10° 19:15:43 10° 0° (N) 2,510 7.9 -32.9°
Sets 19:18:20 0° 351° (N) 3,452 8.8 -33.3°
